Location: Pompeys Pillar
(45.9913°N, 107.9528°W)
Time: 04:23:58
(UTC+00:00)

Tiros 1 - Pass Details

Date: 04 June 2022
Orbit: 629 x 663 km, 48.4° (Epoch: 30 June)

Event Time Altitude Azimuth Distance (km) Brightness Sun altitude
Rises 11:09:53 0° 284° (WNW) 2,927 10.1 -2.7°
Reaches altitude 10° 11:12:49 10° 265° (W) 2,020 9.2 -2.3°
Maximum altitude 11:15:56 18° 223° (SW) 1,566 8.5 -1.8°
Drops below altitude 10° 11:19:04 10° 181° (S) 2,026 9.4 -1.4°
Sets 11:22:01 0° 162° (SSE) 2,939 10.4 -1.0°
